User: anonymous   Login
Location: Unspecified
(0.0000°N, 0.0000°E)
Time: 02:47:44
(UTC+00:00)
Language:

Orizuru - Orbit

View from above orbital plane
View from above orbital plane
View from above satellite
View from above satellite

Ground track
Ground track

The orbit data is extracted from the following two-line orbital elements,

1 20479U 90013B   18113.24489911 -.00000067  00000-0 -80982-4 0  9993
2 20479  99.0638 197.0530 0539486  39.2504  20.5233 12.83840918321759
Epoch (UTC): 23 April 2018 05:52:39
Eccentricity: 0.0539486
inclination: 99.0638°
perigee height: 910 km
apogee height: 1741 km
right ascension of ascending node: 197.0530°
argument of perigee: 39.2504°
revolutions per day: 12.83840918
mean anomaly at epoch: 20.5233°
orbit number at epoch: 32175

The dashed part of the orbit path shows where the satellite is in the earth's shadow,  

DLR